Location: Walton
(43.6794°N, 81.3017°W)
Time: 07:26:41
(UTC+00:00)

NOAA 6 - Pass Details

Date: 09 December 2025
Orbit: 767 x 781 km, 98.6° (Epoch: 13 January)

Event Time Altitude Azimuth Distance (km) Brightness Sun altitude
Rises 00:07:39 0° 164° (SSE) 3,236 7.2 -24.4°
Reaches altitude 10° 00:09:57 10° 165° (SSE) 2,312 6.4 -24.8°
Maximum altitude 00:15:04 90° 217° (SW) 777 3.9 -25.7°
Drops below altitude 10° 00:20:12 10° 346° (NNW) 2,320 6.5 -26.6°
Sets 00:22:30 0° 347° (NNW) 3,249 7.3 -27.0°
